Vertical_Velocity
-2 -3 -0 -1 3 -1 1 -4 -2 -3 1 -1 -0 -1 0 0 0 -2 1 -1 -1 -2 -3 -2 -1 -1 1 -7 -2 2 -1 0 -2 -1 -2 3 0 1 -3 -2 6 7 -2 2 -0 0 1
-1 -1 -2 -5 -2 3 -1 -3 1 -3 -0 -1 3 -0 -2 -1 -1 -1 1 -1 2 -0 -2 -5 -5 -2 2 1 -3 0 0 1 -0 1 -0 6 -7 -5 2 -3 1 -7 -1 -4 1 1 0
2 2 1 0 -3 1 -0 -4 0 -2 -1 -0 2 -1 -2 1 1 -1 1 -2 2 -3 0 0 -0 -0 -0 1 -3 -1 -1 1 1 -3 4 0 12 2 -3 4 -4 -0 6 5 4 -1 0
4 -0 -2 -1 -1 0 -0 -2 -1 -2 1 0 1 -1 -1 1 -0 -0 -1 0 -0 -1 3 1 3 2 2 -2 3 0 -0 1 -1 0 -1 -5 0 11 1 -3 11 3 9 3 -3 4 1
-3 -1 2 0 -2 0 -2 -0 -3 -1 0 -3 1 1 -0 -1 0 -0 -2 1 -1 1 0 -4 -8 -2 5 -7 4 1 -1 3 -2 3 -7 6 2 2 7 2 9 6 -2 4 6 -2 -1
12 -2 -2 3 -3 -1 -1 1 -2 -2 0 -1 0 -1 1 -1 3 -2 -1 1 -3 -1 2 -1 -3 4 -3 5 -2 1 -1 0 4 -2 -11 5 -1 0 8 7 -10 -4 4 4 -3 -1 5
5 1 1 0 -1 0 -1 -1 -1 -1 -1 -2 -0 1 1 -2 1 1 0 -1 -2 1 -0 -0 1 1 -3 -4 -3 3 -6 2 6 4 3 1 -3 -1 -9 -5 -2 -3 -0 -2 0 -0 4
1 2 0 2 -2 2 -1 -1 -1 -2 -2 0 -1 3 -0 -1 0 -0 2 -0 -1 -2 5 -0 -1 1 -4 -4 1 0 2 4 -4 -1 2 -2 -1 -4 -1 0 -1 2 -1 2 2 2 7
3 -6 -0 5 -2 1 1 -0 -3 -0 -1 -1 -3 4 -1 -1 1 -0 1 -0 -2 -0 2 -5 -4 2 4 -1 6 -3 1 0 -2 3 1 -6 -3 1 -0 2 2 1 -4 1 -9 2 3
0 6 -3 2 -2 -2 -0 -0 -1 0 1 -4 1 1 -1 -1 -1 0 0 2 -3 -2 3 3 3 -1 5 1 4 -7 -7 2 -0 -2 -1 -1 4 -1 3 -1 -3 1 -2 -2 -0 2 -1
14 2 -2 3 -2 -2 -1 1 -1 1 1 -3 -1 1 1 1 -1 -2 -0 2 -2 -3 2 2 4 -0 3 3 -1 -3 4 -3 -2 -1 -0 4 0 3 3 -8 -1 1 -1 -3 -1 1 3
1 1 0 3 -3 -3 -1 0 1 -0 -0 -0 -3 2 -1 -1 -2 0 -5 0 -0 5 3 -1 1 1 1 0 1 1 3 4 -4 -2 1 -2 1 0 -4 1 -0 -0 1 1 1 1 5
1 0 1 1 -4 -2 0 -2 3 -1 0 2 -4 1 -1 1 -2 3 -6 2 3 1 2 2 0 0 -0 -0 2 2 0 3 -0 -1 2 6 3 1 1 -3 5 3 4 2 6 5 -2
-2 -2 1 3 -3 -2 -0 -1 2 1 0 0 -2 2 -0 1 -3 -0 -3 4 -1 0 -1 1 -0 1 0 0 1 0 1 1 -0 -2 -2 -1 14 1 -1 -4 -8 -4 -4 -3 -4 -1 -2
1 -2 1 2 -4 -1 -1 -1 1 -0 0 -1 -2 3 1 0 -1 0 -2 1 0 -2 -3 -0 4 1 2 1 1 2 0 -1 -1 -2 -2 -2 1 0 -0 0 1 -1 3 4 -2 1 3
1 3 0 1 -3 -1 -2 -1 1 1 -1 -0 -2 3 1 -0 1 -1 2 0 1 -0 0 1 0 1 -0 1 1 2 1 -1 1 0 1 3 -1 -0 2 -1 1 5 -3 5 -0 1 1
4 4 -0 -1 -1 -2 -1 -1 0 1 -1 1 0 4 -1 0 1 -1 1 -1 0 -1 -0 1 -0 1 0 -2 -0 0 1 2 -0 2 -0 -2 -6 5 1 -0 -3 4 2 1 2 2 1
15 3 -1 -3 1 -2 -2 0 -1 0 1 1 1 2 0 1 3 -0 0 -2 -1 0 0 0 1 -0 -1 -0 -0 -0 -0 1 -0 -1 1 1 -2 -0 -3 2 1 1 -1 -1 4 0 1
8 1 -1 -3 -0 -1 -3 -1 -2 2 1 -1 0 0 2 -0 1 1 -0 0 0 1 -0 1 0 0 -0 -1 0 -0 0 1 -0 0 0 -1 2 1 3 3 2 1 -1 -0 0 -0 -2
11 3 -1 -3 -2 -1 -3 -1 -2 1 2 -1 -0 1 2 1 -3 1 0 0 1 -0 0 0 0 1 1 0 -0 1 1 1 -0 0 -1 -2 -0 -1 -6 -0 -5 3 1 0 -0 3 -6
11 -0 1 -2 -2 -4 -3 -1 1 -1 2 -1 -1 1 -1 1 3 0 1 0 0 1 -1 -0 1 -0 0 0 1 0 0 2 1 1 -0 1 -1 -1 0 0 -0 -1 -1 -0 2 -9 9
9 6 -1 -1 -1 -5 -2 -3 1 -0 0 0 -3 -3 -2 -0 -1 1 1 1 -1 2 2 1 -1 0 -0 -1 3 -0 -2 -0 -3 3 -0 0 2 -0 1 0 0 0 -0 0 -0 -2 2
3 11 -2 -1 -1 -4 -3 -3 1 -1 0 -1 -1 -0 -1 0 1 2 0 0 1 -0 2 1 1 -0 -1 2 1 1 1 1 0 -3 -0 -1 -1 0 1 0 -0 2 -6 -2 -1 0 1
4 1 3 -3 -0 -3 -3 -3 0 -2 0 1 -3 -3 -1 3 0 -0 -0 -0 0 1 -0 1 -1 -0 1 0 1 -1 0 -0 -0 1 -1 -1 -1 1 -0 2 1 4 0 -0 -1 -2 -0
6 2 3 -1 0 -5 -5 -0 1 -1 -2 1 -3 -3 -3 1 -1 2 1 -0 -0 -0 -0 0 1 1 -0 1 2 2 2 3 2 1 0 -0 -1 0 2 -1 -1 3 0 -0 0 -1 -1
3 -1 4 0 -1 -4 -3 -1 2 1 -2 1 -4 -2 -3 -10 3 -1 -1 -0 -0 0 1 1 -0 -4 0 0 0 0 -1 -1 3 4 0 1 1 3 1 1 -1 2 1 -1 0 2 -0
3 -0 0 2 -2 -2 -2 -2 1 0 -4 -1 -5 -3 -3 -8 -1 -0 1 -1 -2 -1 -0 -1 -2 -1 -0 0 0 -0 0 1 1 -0 0 1 1 -1 0 -0 -4 -1 -0 -1 9 9 -0
-3 -12 6 -0 -2 0 -0 -3 1 -2 -2 -3 -3 -4 -3 -5 0 -1 -1 -1 -0 -1 -1 1 3 3 0 1 2 -1 1 1 2 0 -1 -3 -1 -1 3 3 -3 -2 3 5 4 -1 -1
-1 -6 1 2 -3 1 -0 -3 1 -3 -4 -0 -6 -3 -3 -8 -5 -3 2 -2 -2 -2 -3 -2 1 -1 -1 0 1 1 1 2 -0 1 1 4 1 1 2 -4 1 -1 2 4 -0 -0 -1
Height
1558 1555 1553 1550 1547 1543 1539 1536 1533 1530 1527 1524 1520 1516 1513 1512 1509 1506 1503 1501 1500 1497 1495 1493 1492 1490 1489 1491 1491 1489 1488 1487 1488 1493 1495 1498 1502 1504 1500 1503 1509 1511 1511 1515 1519 1523 1526
1556 1553 1550 1547 1546 1542 1538 1535 1532 1528 1524 1522 1518 1514 1510 1509 1506 1504 1502 1500 1499 1497 1495 1492 1491 1490 1490 1489 1489 1488 1488 1488 1490 1492 1495 1497 1499 1502 1501 1503 1508 1509 1513 1515 1520 1523 1527
1553 1551 1547 1545 1542 1540 1536 1533 1530 1526 1523 1519 1516 1511 1507 1505 1504 1502 1501 1499 1497 1496 1494 1491 1489 1489 1489 1490 1488 1488 1488 1489 1490 1493 1495 1497 1498 1502 1500 1505 1509 1510 1513 1515 1519 1521 1525
1550 1548 1545 1542 1539 1537 1534 1531 1528 1524 1520 1517 1513 1509 1506 1502 1500 1499 1498 1496 1496 1495 1494 1492 1491 1490 1489 1488 1487 1488 1488 1490 1491 1494 1496 1496 1499 1502 1502 1506 1509 1510 1510 1516 1514 1520 1526
1546 1545 1542 1539 1536 1534 1531 1528 1526 1522 1518 1515 1511 1506 1502 1499 1497 1496 1496 1495 1495 1495 1493 1492 1493 1492 1490 1489 1489 1488 1488 1491 1493 1494 1498 1500 1502 1504 1504 1503 1506 1508 1504 1510 1516 1516 1524
1542 1541 1538 1536 1533 1531 1528 1526 1523 1520 1515 1512 1508 1503 1499 1497 1495 1495 1494 1494 1493 1494 1493 1491 1491 1493 1491 1492 1490 1489 1489 1491 1494 1496 1500 1501 1503 1505 1501 1497 1495 1495 1496 1506 1508 1516 1519
1536 1536 1534 1533 1530 1528 1525 1522 1520 1517 1512 1509 1505 1500 1497 1495 1494 1493 1494 1493 1496 1495 1492 1493 1493 1492 1490 1491 1491 1490 1489 1492 1494 1497 1496 1499 1503 1504 1491 1491 1486 1490 1497 1509 1510 1516 1519
1532 1532 1530 1529 1527 1525 1522 1519 1516 1514 1510 1506 1502 1497 1495 1493 1492 1492 1493 1493 1492 1494 1494 1492 1492 1493 1491 1490 1491 1491 1490 1493 1495 1501 1494 1500 1501 1500 1492 1496 1496 1498 1501 1505 1511 1513 1517
1527 1527 1527 1524 1523 1521 1518 1516 1513 1510 1507 1503 1499 1495 1492 1491 1491 1492 1493 1493 1492 1492 1493 1493 1492 1493 1491 1491 1490 1490 1492 1492 1493 1494 1492 1496 1500 1503 1497 1497 1498 1497 1497 1504 1506 1513 1516
1523 1521 1521 1521 1519 1518 1515 1512 1510 1507 1503 1500 1497 1493 1491 1490 1492 1491 1493 1491 1492 1492 1491 1493 1492 1493 1492 1490 1490 1491 1489 1490 1491 1492 1494 1499 1499 1498 1494 1496 1496 1502 1499 1503 1508 1510 1511
1515 1516 1515 1516 1514 1514 1511 1509 1506 1504 1500 1497 1494 1491 1489 1487 1489 1491 1492 1491 1491 1492 1477 1492 1492 1491 1492 1492 1491 1490 1491 1493 1493 1492 1493 1497 1500 1497 1495 1495 1495 1501 1503 1505 1507 1507 1511
1510 1510 1510 1510 1509 1509 1508 1506 1503 1501 1498 1494 1491 1490 1489 1489 1489 1490 1491 1491 1492 1493 1484 1494 1490 1491 1492 1491 1490 1489 1490 1492 1493 1495 1494 1496 1499 1499 1497 1500 1499 1503 1507 1510 1512 1509 1518
1504 1504 1504 1505 1504 1503 1504 1502 1500 1497 1495 1491 1489 1488 1488 1488 1490 1489 1490 1492 1490 1479 1496 1490 1489 1490 1488 1491 1491 1490 1488 1488 1488 1492 1494 1498 1499 1502 1502 1500 1504 1501 1503 1520 1524 1523 1510
1497 1498 1498 1499 1499 1499 1499 1498 1496 1494 1492 1488 1486 1487 1487 1488 1490 1490 1491 1492 1480 1488 1489 1486 1485 1489 1489 1487 1489 1488 1487 1488 1488 1487 1490 1494 1503 1502 1502 1496 1499 1500 1495 1501 1509 1510 1503
1489 1492 1492 1493 1494 1495 1495 1494 1492 1490 1488 1486 1485 1486 1487 1488 1489 1490 1492 1482 1476 1483 1485 1483 1484 1483 1488 1490 1491 1488 1486 1490 1486 1483 1487 1492 1503 1506 1506 1503 1503 1505 1506 1509 1510 1518 1508
1482 1484 1486 1487 1489 1490 1490 1490 1488 1486 1485 1483 1484 1486 1487 1487 1489 1490 1490 1482 1480 1483 1483 1484 1477 1480 1479 1486 1487 1485 1489 1488 1486 1488 1488 1490 1501 1504 1506 1505 1506 1503 1504 1508 1510 1513 1506
1473 1477 1480 1481 1484 1485 1486 1486 1484 1482 1481 1481 1482 1485 1486 1487 1488 1490 1484 1483 1480 1482 1483 1481 1478 1477 1479 1480 1483 1482 1485 1488 1487 1488 1489 1487 1488 1508 1506 1507 1502 1504 1504 1506 1502 1505 1498
1464 1469 1473 1476 1478 1480 1481 1482 1480 1478 1478 1479 1481 1483 1484 1486 1489 1489 1482 1482 1480 1480 1481 1480 1480 1478 1477 1481 1481 1482 1482 1486 1487 1487 1486 1490 1491 1503 1500 1506 1506 1505 1498 1497 1500 1508 1511
1457 1462 1467 1470 1473 1475 1477 1477 1476 1475 1475 1476 1479 1481 1483 1483 1481 1480 1480 1480 1479 1479 1479 1480 1478 1477 1477 1479 1480 1482 1483 1487 1487 1487 1486 1488 1492 1502 1510 1508 1507 1506 1501 1500 1502 1505 1512
1449 1455 1460 1464 1468 1470 1472 1472 1472 1472 1471 1473 1477 1478 1482 1482 1482 1479 1478 1478 1477 1479 1479 1478 1478 1478 1477 1478 1481 1482 1484 1487 1488 1488 1489 1489 1492 1490 1486 1486 1488 1502 1498 1499 1501 1503 1493
1441 1448 1453 1458 1462 1465 1467 1468 1468 1468 1468 1471 1472 1474 1474 1477 1479 1478 1480 1480 1477 1477 1479 1478 1478 1478 1477 1477 1478 1481 1484 1487 1489 1489 1489 1489 1496 1502 1495 1495 1496 1496 1494 1494 1501 1493 1494
1434 1441 1447 1452 1457 1460 1463 1464 1464 1464 1465 1468 1468 1470 1474 1477 1478 1478 1479 1479 1478 1480 1480 1478 1478 1479 1479 1478 1483 1480 1482 1483 1482 1489 1489 1491 1496 1499 1496 1498 1498 1498 1492 1492 1491 1490 1489
1428 1434 1441 1447 1452 1456 1458 1460 1460 1460 1462 1463 1464 1466 1468 1477 1478 1476 1477 1480 1480 1481 1483 1483 1483 1481 1482 1486 1486 1486 1485 1484 1483 1483 1487 1489 1495 1496 1493 1501 1499 1492 1483 1484 1484 1484 1485
1420 1429 1437 1442 1447 1451 1454 1456 1456 1458 1459 1459 1460 1463 1466 1473 1476 1477 1480 1481 1480 1482 1482 1484 1483 1482 1487 1484 1485 1486 1487 1486 1486 1488 1488 1490 1497 1501 1495 1502 1494 1480 1484 1484 1484 1482 1482
1416 1424 1432 1438 1443 1447 1451 1452 1453 1455 1456 1457 1458 1460 1463 1472 1477 1481 1481 1481 1482 1482 1484 1484 1485 1486 1485 1486 1483 1482 1483 1485 1487 1490 1490 1490 1488 1492 1490 1489 1481 1480 1485 1484 1482 1477 1477
1411 1419 1428 1434 1439 1444 1447 1449 1451 1453 1454 1455 1456 1458 1460 1468 1479 1479 1480 1482 1481 1482 1483 1484 1486 1487 1486 1486 1485 1482 1480 1479 1484 1487 1491 1490 1489 1484 1492 1487 1481 1475 1479 1481 1481 1473 1475
1405 1414 1426 1431 1436 1440 1444 1447 1449 1452 1453 1455 1455 1457 1459 1469 1478 1480 1480 1482 1484 1485 1484 1486 1487 1487 1486 1486 1488 1481 1480 1485 1479 1480 1484 1486 1487 1486 1485 1483 1475 1473 1478 1481 1479 1477 1473
1400 1412 1423 1428 1433 1438 1441 1444 1448 1451 1453 1453 1454 1457 1459 1468 1478 1480 1481 1482 1484 1485 1483 1488 1489 1489 1488 1486 1486 1479 1475 1480 1483 1483 1482 1479 1480 1484 1482 1484 1482 1475 1479 1477 1472 1472 1473
1395 1408 1418 1425 1431 1435 1438 1442 1446 1450 1452 1452 1453 1457 1461 1465 1478 1481 1482 1482 1483 1484 1486 1487 1489 1490 1491 1489 1489 1485 1478 1484 1480 1474 1485 1480 1477 1474 1475 1470 1471 1473 1472 1473 1472 1472 1471